Location: Northcutt
(34.7304°N, 84.4305°W)
Time: 17:47:48
(UTC+00:00)

SR - Pass Details

Date: 12 October 2022
Orbit: 577 x 874 km, 66.7° (Epoch: 05 December)

Event Time Altitude Azimuth Distance (km) Brightness Sun altitude
Rises 07:49:26 0° 351° (N) 3,280 - -46.9°
Reaches altitude 10° 07:53:29 10° 20° (NNE) 2,272 - -46.2°
Maximum altitude 07:55:38 13° 45° (NE) 2,057 - -45.8°
Drops below altitude 10° 07:57:44 10° 70° (ENE) 2,182 - -45.5°
Exits shadow 07:59:57 - 91° (E) 2,617 ? -45.1°
Sets 08:01:26 0° 100° (E) 3,019 ? -44.8°
